Year,Month,Day,Hour,Minute,Value (Times are PST for temperature in C)
2012,07,19,00,00,15.90
2012,07,19,00,01,15.90
2012,07,19,00,02,15.90
2012,07,19,00,03,15.90
2012,07,19,00,04,15.90
2012,07,19,00,05,15.90
2012,07,19,00,06,15.90
2012,07,19,00,07,15.90
2012,07,19,00,08,16.00
2012,07,19,00,09,16.00
2012,07,19,00,10,16.00
2012,07,19,00,11,16.00
2012,07,19,00,12,16.00
2012,07,19,00,13,16.00
2012,07,19,00,14,15.90
2012,07,19,00,15,15.90
2012,07,19,00,16,15.90
2012,07,19,00,17,15.90
2012,07,19,00,18,15.90
2012,07,19,00,19,15.90
2012,07,19,00,20,15.90
2012,07,19,00,21,15.90
2012,07,19,00,22,15.90
2012,07,19,00,23,15.90
2012,07,19,00,24,15.90
2012,07,19,00,25,15.90
2012,07,19,00,26,15.80
2012,07,19,00,27,15.80
2012,07,19,00,28,15.80
2012,07,19,00,29,15.80
2012,07,19,00,30,15.80
2012,07,19,00,31,15.80
2012,07,19,00,32,15.80
2012,07,19,00,33,15.80
2012,07,19,00,34,15.80
2012,07,19,00,35,15.80
2012,07,19,00,36,15.80
2012,07,19,00,37,15.80
2012,07,19,00,38,15.70
2012,07,19,00,39,15.70
2012,07,19,00,40,15.70
2012,07,19,00,41,15.70
2012,07,19,00,42,15.70
2012,07,19,00,43,15.70
2012,07,19,00,44,15.70
2012,07,19,00,45,15.70
2012,07,19,00,46,15.70
2012,07,19,00,47,15.70
2012,07,19,00,48,15.70
2012,07,19,00,49,15.70
2012,07,19,00,50,15.70
2012,07,19,00,51,15.70
2012,07,19,00,52,15.70
2012,07,19,00,53,15.70
2012,07,19,00,54,15.70
2012,07,19,00,55,15.70
2012,07,19,00,56,15.70
2012,07,19,00,57,15.70
2012,07,19,00,58,15.70
2012,07,19,00,59,15.70
2012,07,19,01,00,15.70
2012,07,19,01,01,15.70
2012,07,19,01,02,15.70
2012,07,19,01,03,15.70
2012,07,19,01,04,15.70
2012,07,19,01,05,15.70
2012,07,19,01,06,15.70
2012,07,19,01,07,15.70
2012,07,19,01,08,15.70
2012,07,19,01,09,15.70
2012,07,19,01,10,15.70
2012,07,19,01,11,15.70
2012,07,19,01,12,15.70
2012,07,19,01,13,15.70
2012,07,19,01,14,15.70
2012,07,19,01,15,15.70
2012,07,19,01,16,15.70
2012,07,19,01,17,15.70
2012,07,19,01,18,15.70
2012,07,19,01,19,15.70
2012,07,19,01,20,15.70
2012,07,19,01,21,15.70
2012,07,19,01,22,15.70
2012,07,19,01,23,15.70
2012,07,19,01,24,15.70
2012,07,19,01,25,15.70
2012,07,19,01,26,15.70
2012,07,19,01,27,15.70
2012,07,19,01,28,15.70
2012,07,19,01,29,15.70
2012,07,19,01,30,15.70
2012,07,19,01,31,15.70
2012,07,19,01,32,15.70
2012,07,19,01,33,15.70
2012,07,19,01,34,15.70
2012,07,19,01,35,15.70
2012,07,19,01,36,15.70
2012,07,19,01,37,15.70
2012,07,19,01,38,15.70
2012,07,19,01,39,15.70
2012,07,19,01,40,15.70
2012,07,19,01,41,15.70
2012,07,19,01,42,15.70
2012,07,19,01,43,15.70
2012,07,19,01,44,15.70
2012,07,19,01,45,15.70
2012,07,19,01,46,15.70
2012,07,19,01,47,15.70
2012,07,19,01,48,15.70
2012,07,19,01,49,15.70
2012,07,19,01,50,15.70
2012,07,19,01,51,15.70
2012,07,19,01,52,15.70
2012,07,19,01,53,15.70
2012,07,19,01,54,15.70
2012,07,19,01,55,15.70
2012,07,19,01,56,15.70
2012,07,19,01,57,15.70
2012,07,19,01,58,15.70
2012,07,19,01,59,15.70
2012,07,19,02,00,15.70
2012,07,19,02,01,15.70
2012,07,19,02,02,15.70
2012,07,19,02,03,15.70
2012,07,19,02,04,15.80
2012,07,19,02,05,15.80
2012,07,19,02,06,15.80
2012,07,19,02,07,15.80
2012,07,19,02,08,15.80
2012,07,19,02,09,15.80
2012,07,19,02,10,15.80
2012,07,19,02,11,15.80
2012,07,19,02,12,15.80
2012,07,19,02,13,15.80
2012,07,19,02,14,15.80
2012,07,19,02,15,15.80
2012,07,19,02,16,15.80
2012,07,19,02,17,15.80
2012,07,19,02,18,15.80
2012,07,19,02,19,15.80
2012,07,19,02,20,15.80
2012,07,19,02,21,15.80
2012,07,19,02,22,15.80
2012,07,19,02,23,15.80
2012,07,19,02,24,15.80
2012,07,19,02,25,15.80
2012,07,19,02,26,15.70
2012,07,19,02,27,15.70
2012,07,19,02,28,15.70
2012,07,19,02,29,15.70
2012,07,19,02,30,15.70
2012,07,19,02,31,15.70
2012,07,19,02,32,15.70
2012,07,19,02,33,15.70
2012,07,19,02,34,15.70
2012,07,19,02,35,15.60
2012,07,19,02,36,15.60
2012,07,19,02,37,15.60
2012,07,19,02,38,15.60
2012,07,19,02,39,15.60
2012,07,19,02,40,15.60
2012,07,19,02,41,15.60
2012,07,19,02,42,15.60
2012,07,19,02,43,15.50
2012,07,19,02,44,15.50
2012,07,19,02,45,15.50
2012,07,19,02,46,15.50
2012,07,19,02,47,15.50
2012,07,19,02,48,15.50
2012,07,19,02,49,15.50
2012,07,19,02,50,15.50
2012,07,19,02,51,15.50
2012,07,19,02,52,15.50
2012,07,19,02,53,15.50
2012,07,19,02,54,15.50
2012,07,19,02,55,15.60
2012,07,19,02,56,15.60
2012,07,19,02,57,15.60
2012,07,19,02,58,15.60
2012,07,19,02,59,15.60
2012,07,19,03,00,15.60
2012,07,19,03,01,15.60
2012,07,19,03,02,15.50
2012,07,19,03,03,15.50
2012,07,19,03,04,15.50
2012,07,19,03,05,15.50
2012,07,19,03,06,15.50
2012,07,19,03,07,15.50
2012,07,19,03,08,15.50
2012,07,19,03,09,15.50
2012,07,19,03,10,15.50
2012,07,19,03,11,15.50
2012,07,19,03,12,15.50
2012,07,19,03,13,15.40
2012,07,19,03,14,15.40
2012,07,19,03,15,15.40
2012,07,19,03,16,15.40
2012,07,19,03,17,15.40
2012,07,19,03,18,15.40
2012,07,19,03,19,15.40
2012,07,19,03,20,15.40
2012,07,19,03,21,15.40
2012,07,19,03,22,15.40
2012,07,19,03,23,15.30
2012,07,19,03,24,15.30
2012,07,19,03,25,15.30
2012,07,19,03,26,15.30
2012,07,19,03,27,15.30
2012,07,19,03,28,15.30
2012,07,19,03,29,15.30
2012,07,19,03,30,15.30
2012,07,19,03,31,15.20
2012,07,19,03,32,15.20
2012,07,19,03,33,15.20
2012,07,19,03,34,15.20
2012,07,19,03,35,15.20
2012,07,19,03,36,15.20
2012,07,19,03,37,15.20
2012,07,19,03,38,15.20
2012,07,19,03,39,15.20
2012,07,19,03,40,15.10
2012,07,19,03,41,15.10
2012,07,19,03,42,15.10
2012,07,19,03,43,15.10
2012,07,19,03,44,15.10
2012,07,19,03,45,15.10
2012,07,19,03,46,15.10
2012,07,19,03,47,15.10
2012,07,19,03,48,15.00
2012,07,19,03,49,15.00
2012,07,19,03,50,15.00
2012,07,19,03,51,15.00
2012,07,19,03,52,14.90
2012,07,19,03,53,14.90
2012,07,19,03,54,14.90
2012,07,19,03,55,14.90
2012,07,19,03,56,14.90
2012,07,19,03,57,14.80
2012,07,19,03,58,14.80
2012,07,19,03,59,14.80
2012,07,19,04,00,14.80
2012,07,19,04,01,14.80
2012,07,19,04,02,14.80
2012,07,19,04,03,14.80
2012,07,19,04,04,14.80
2012,07,19,04,05,14.70
2012,07,19,04,06,14.70
2012,07,19,04,07,14.70
2012,07,19,04,08,14.70
2012,07,19,04,09,14.70
2012,07,19,04,10,14.70
2012,07,19,04,11,14.70
2012,07,19,04,12,14.60
2012,07,19,04,13,14.60
2012,07,19,04,14,14.60
2012,07,19,04,15,14.60
2012,07,19,04,16,14.60
2012,07,19,04,17,14.60
2012,07,19,04,18,14.50
2012,07,19,04,19,14.50
2012,07,19,04,20,14.50
2012,07,19,04,21,14.50
2012,07,19,04,22,14.50
2012,07,19,04,23,14.40
2012,07,19,04,24,14.40
2012,07,19,04,25,14.40
2012,07,19,04,26,14.40
2012,07,19,04,27,14.40
2012,07,19,04,28,14.40
2012,07,19,04,29,14.40
2012,07,19,04,30,14.40
2012,07,19,04,31,14.40
2012,07,19,04,32,14.40
2012,07,19,04,33,14.40
2012,07,19,04,34,14.40
2012,07,19,04,35,14.40
2012,07,19,04,36,14.40
2012,07,19,04,37,14.40
2012,07,19,04,38,14.40
2012,07,19,04,39,14.40
2012,07,19,04,40,14.40
2012,07,19,04,41,14.40
2012,07,19,04,42,14.40
2012,07,19,04,43,14.50
2012,07,19,04,44,14.50
2012,07,19,04,45,14.50
2012,07,19,04,46,14.50
2012,07,19,04,47,14.40
2012,07,19,04,48,14.40
2012,07,19,04,49,14.40
2012,07,19,04,50,14.40
2012,07,19,04,51,14.40
2012,07,19,04,52,14.40
2012,07,19,04,53,14.40
2012,07,19,04,54,14.40
2012,07,19,04,55,14.30
2012,07,19,04,56,14.30
2012,07,19,04,57,14.30
2012,07,19,04,58,14.30
2012,07,19,04,59,14.30
2012,07,19,05,00,14.20
2012,07,19,05,01,14.20
2012,07,19,05,02,14.20
2012,07,19,05,03,14.20
2012,07,19,05,04,14.20
2012,07,19,05,05,14.20
2012,07,19,05,06,14.20
2012,07,19,05,07,14.20
2012,07,19,05,08,14.20
2012,07,19,05,09,14.20
2012,07,19,05,10,14.10
2012,07,19,05,11,14.10
2012,07,19,05,12,14.10
2012,07,19,05,13,14.00
2012,07,19,05,14,14.00
2012,07,19,05,15,13.90
2012,07,19,05,16,13.90
2012,07,19,05,17,13.90
2012,07,19,05,18,13.90
2012,07,19,05,19,13.90
2012,07,19,05,20,13.90
2012,07,19,05,21,13.90
2012,07,19,05,22,13.90
2012,07,19,05,23,14.00
2012,07,19,05,24,14.00
2012,07,19,05,25,14.00
2012,07,19,05,26,14.00
2012,07,19,05,27,14.10
2012,07,19,05,28,14.10
2012,07,19,05,29,14.10
2012,07,19,05,30,14.10
2012,07,19,05,31,14.10
2012,07,19,05,32,14.10
2012,07,19,05,33,14.20
2012,07,19,05,34,14.20
2012,07,19,05,35,14.20
2012,07,19,05,36,14.20
2012,07,19,05,37,14.20
2012,07,19,05,38,14.30
2012,07,19,05,39,14.30
2012,07,19,05,40,14.30
2012,07,19,05,41,14.40
2012,07,19,05,42,14.40
2012,07,19,05,43,14.50
2012,07,19,05,44,14.50
2012,07,19,05,45,14.50
2012,07,19,05,46,14.60
2012,07,19,05,47,14.60
2012,07,19,05,48,14.70
2012,07,19,05,49,14.70
2012,07,19,05,50,14.70
2012,07,19,05,51,14.80
2012,07,19,05,52,14.80
2012,07,19,05,53,14.80
2012,07,19,05,54,14.80
2012,07,19,05,55,14.90
2012,07,19,05,56,14.90
2012,07,19,05,57,14.90
2012,07,19,05,58,14.90
2012,07,19,05,59,15.00
2012,07,19,06,00,15.00
2012,07,19,06,01,15.00
2012,07,19,06,02,15.00
2012,07,19,06,03,15.10
2012,07,19,06,04,15.10
2012,07,19,06,05,15.10
2012,07,19,06,06,15.10
2012,07,19,06,07,15.10
2012,07,19,06,08,15.20
2012,07,19,06,09,15.20
2012,07,19,06,10,15.20
2012,07,19,06,11,15.20
2012,07,19,06,12,15.20
2012,07,19,06,13,15.20
2012,07,19,06,14,15.30
2012,07,19,06,15,15.30
2012,07,19,06,16,15.30
2012,07,19,06,17,15.30
2012,07,19,06,18,15.30
2012,07,19,06,19,15.30
2012,07,19,06,20,15.30
2012,07,19,06,21,15.40
2012,07,19,06,22,15.40
2012,07,19,06,23,15.40
2012,07,19,06,24,15.40
2012,07,19,06,25,15.40
2012,07,19,06,26,15.50
2012,07,19,06,27,15.50
2012,07,19,06,28,15.50
2012,07,19,06,29,15.60
2012,07,19,06,30,15.60
2012,07,19,06,31,15.60
2012,07,19,06,32,15.60
2012,07,19,06,33,15.60
2012,07,19,06,34,15.60
2012,07,19,06,35,15.70
2012,07,19,06,36,15.70
2012,07,19,06,37,15.70
2012,07,19,06,38,15.70
2012,07,19,06,39,15.80
2012,07,19,06,40,15.80
2012,07,19,06,41,15.80
2012,07,19,06,42,15.80
2012,07,19,06,43,15.90
2012,07,19,06,44,15.90
2012,07,19,06,45,15.90
2012,07,19,06,46,16.00
2012,07,19,06,47,16.00
2012,07,19,06,48,16.10
2012,07,19,06,49,16.10
2012,07,19,06,50,16.20
2012,07,19,06,51,16.20
2012,07,19,06,52,16.20
2012,07,19,06,53,16.30
2012,07,19,06,54,16.30
2012,07,19,06,55,16.30
2012,07,19,06,56,16.30
2012,07,19,06,57,16.30
2012,07,19,06,58,16.40
2012,07,19,06,59,16.40
2012,07,19,07,00,16.40
2012,07,19,07,01,16.50
2012,07,19,07,02,16.50
2012,07,19,07,03,16.50
2012,07,19,07,04,16.60
2012,07,19,07,05,16.60
2012,07,19,07,06,16.60
2012,07,19,07,07,16.60
2012,07,19,07,08,16.60
2012,07,19,07,09,16.60
2012,07,19,07,10,16.60
2012,07,19,07,11,16.60
2012,07,19,07,12,16.60
2012,07,19,07,13,16.60
2012,07,19,07,14,16.60
2012,07,19,07,15,16.60
2012,07,19,07,16,16.60
2012,07,19,07,17,16.60
2012,07,19,07,18,16.60
2012,07,19,07,19,16.60
2012,07,19,07,20,16.60
2012,07,19,07,21,16.60
2012,07,19,07,22,16.60
2012,07,19,07,23,16.60
2012,07,19,07,24,16.60
2012,07,19,07,25,16.60
2012,07,19,07,26,16.60
2012,07,19,07,27,16.60
2012,07,19,07,28,16.60
2012,07,19,07,29,16.60
2012,07,19,07,30,16.70
2012,07,19,07,31,16.70
2012,07,19,07,32,16.70
2012,07,19,07,33,16.70
2012,07,19,07,34,16.80
2012,07,19,07,35,16.80
2012,07,19,07,36,16.80
2012,07,19,07,37,16.90
2012,07,19,07,38,16.90
2012,07,19,07,39,16.90
2012,07,19,07,40,16.90
2012,07,19,07,41,16.90
2012,07,19,07,42,17.00
2012,07,19,07,43,17.00
2012,07,19,07,44,17.00
2012,07,19,07,45,17.00
2012,07,19,07,46,17.00
2012,07,19,07,47,17.10
2012,07,19,07,48,17.10
2012,07,19,07,49,17.10
2012,07,19,07,50,17.10
2012,07,19,07,51,17.10
2012,07,19,07,52,17.10
2012,07,19,07,53,17.10
2012,07,19,07,54,17.10
2012,07,19,07,55,17.10
2012,07,19,07,56,17.10
2012,07,19,07,57,17.10
2012,07,19,07,58,17.10
2012,07,19,07,59,17.10
2012,07,19,08,00,17.10
2012,07,19,08,01,17.20
2012,07,19,08,02,17.20
2012,07,19,08,03,17.20
2012,07,19,08,04,17.20
2012,07,19,08,05,17.30
2012,07,19,08,06,17.40
2012,07,19,08,07,17.40
2012,07,19,08,08,17.50
2012,07,19,08,09,17.60
2012,07,19,08,10,17.60
2012,07,19,08,11,17.70
2012,07,19,08,12,17.70
2012,07,19,08,13,17.80
2012,07,19,08,14,17.80
2012,07,19,08,15,17.90
2012,07,19,08,16,18.00
2012,07,19,08,17,18.00
2012,07,19,08,18,18.10
2012,07,19,08,19,18.10
2012,07,19,08,20,18.20
2012,07,19,08,21,18.20
2012,07,19,08,22,18.30
2012,07,19,08,23,18.30
2012,07,19,08,24,18.40
2012,07,19,08,25,18.50
2012,07,19,08,26,18.60
2012,07,19,08,27,18.70
2012,07,19,08,28,18.70
2012,07,19,08,29,18.80
2012,07,19,08,30,18.90
2012,07,19,08,31,19.00
2012,07,19,08,32,19.10
2012,07,19,08,33,19.20
2012,07,19,08,34,19.20
2012,07,19,08,35,19.20
2012,07,19,08,36,19.10
2012,07,19,08,37,19.10
2012,07,19,08,38,19.00
2012,07,19,08,39,19.00
2012,07,19,08,40,19.00
2012,07,19,08,41,18.90
2012,07,19,08,42,18.90
2012,07,19,08,43,18.80
2012,07,19,08,44,18.80
2012,07,19,08,45,18.80
2012,07,19,08,46,18.80
2012,07,19,08,47,18.80
2012,07,19,08,48,18.80
2012,07,19,08,49,18.70
2012,07,19,08,50,18.70
2012,07,19,08,51,18.70
2012,07,19,08,52,18.70
2012,07,19,08,53,18.70
2012,07,19,08,54,18.70
2012,07,19,08,55,18.70
2012,07,19,08,56,18.80
2012,07,19,08,57,18.80
2012,07,19,08,58,18.90
2012,07,19,08,59,18.90
2012,07,19,09,00,18.90
2012,07,19,09,01,18.90
2012,07,19,09,02,18.90
2012,07,19,09,03,19.00
2012,07,19,09,04,19.00
2012,07,19,09,05,19.10
2012,07,19,09,06,19.00
2012,07,19,09,07,19.00
2012,07,19,09,08,19.00
2012,07,19,09,09,19.00
2012,07,19,09,10,19.00
2012,07,19,09,11,19.10
2012,07,19,09,12,19.10
2012,07,19,09,13,19.10
2012,07,19,09,14,19.20
2012,07,19,09,15,19.20
2012,07,19,09,16,19.30
2012,07,19,09,17,19.30
2012,07,19,09,18,19.30
2012,07,19,09,19,19.30
2012,07,19,09,20,19.30
2012,07,19,09,21,19.30
2012,07,19,09,22,19.40
2012,07,19,09,23,19.40
2012,07,19,09,24,19.50
2012,07,19,09,25,19.50
2012,07,19,09,26,19.50
2012,07,19,09,27,19.40
2012,07,19,09,28,19.40
2012,07,19,09,29,19.40
2012,07,19,09,30,19.40
2012,07,19,09,31,19.40
2012,07,19,09,32,19.40
2012,07,19,09,33,19.40
2012,07,19,09,34,19.40
2012,07,19,09,35,19.40
2012,07,19,09,36,19.50
2012,07,19,09,37,19.50
2012,07,19,09,38,19.50
2012,07,19,09,39,19.40
2012,07,19,09,40,19.30
2012,07,19,09,41,19.30
2012,07,19,09,42,19.30
2012,07,19,09,43,19.40
2012,07,19,09,44,19.40
2012,07,19,09,45,19.50
2012,07,19,09,46,19.60
2012,07,19,09,47,19.70
2012,07,19,09,48,19.80
2012,07,19,09,49,19.90
2012,07,19,09,50,20.00
2012,07,19,09,51,20.10
2012,07,19,09,52,20.10
2012,07,19,09,53,20.10
2012,07,19,09,54,20.10
2012,07,19,09,55,20.10
2012,07,19,09,56,20.10
2012,07,19,09,57,20.10
2012,07,19,09,58,20.10
2012,07,19,09,59,20.10
2012,07,19,10,00,20.10
2012,07,19,10,01,20.10
2012,07,19,10,02,20.10
2012,07,19,10,03,20.10
2012,07,19,10,04,20.10
2012,07,19,10,05,20.20
2012,07,19,10,06,20.20
2012,07,19,10,07,20.20
2012,07,19,10,08,20.10
2012,07,19,10,09,20.00
2012,07,19,10,10,20.00
2012,07,19,10,11,20.10
2012,07,19,10,12,20.00
2012,07,19,10,13,20.10
2012,07,19,10,14,20.10
2012,07,19,10,15,20.10
2012,07,19,10,16,20.10
2012,07,19,10,17,20.10
2012,07,19,10,18,20.20
2012,07,19,10,19,20.20
2012,07,19,10,20,20.20
2012,07,19,10,21,20.30
2012,07,19,10,22,20.30
2012,07,19,10,23,20.30
2012,07,19,10,24,20.30
2012,07,19,10,25,20.40
2012,07,19,10,26,20.40
2012,07,19,10,27,20.40
2012,07,19,10,28,20.30
2012,07,19,10,29,20.20
2012,07,19,10,30,20.20
2012,07,19,10,31,20.10
2012,07,19,10,32,20.10
2012,07,19,10,33,20.10
2012,07,19,10,34,20.10
2012,07,19,10,35,20.10
2012,07,19,10,36,20.10
2012,07,19,10,37,20.10
2012,07,19,10,38,20.00
2012,07,19,10,39,20.00
2012,07,19,10,40,20.00
2012,07,19,10,41,20.00
2012,07,19,10,42,20.10
2012,07,19,10,43,20.20
2012,07,19,10,44,20.30
2012,07,19,10,45,20.30
2012,07,19,10,46,20.40
2012,07,19,10,47,20.40
2012,07,19,10,48,20.40
2012,07,19,10,49,20.50
2012,07,19,10,50,20.50
2012,07,19,10,51,20.50
2012,07,19,10,52,20.60
2012,07,19,10,53,20.60
2012,07,19,10,54,20.60
2012,07,19,10,55,20.70
2012,07,19,10,56,20.70
2012,07,19,10,57,20.70
2012,07,19,10,58,20.80
2012,07,19,10,59,20.80
2012,07,19,11,00,20.80
2012,07,19,11,01,20.80
2012,07,19,11,02,20.80
2012,07,19,11,03,20.80
2012,07,19,11,04,20.80
2012,07,19,11,05,20.90
2012,07,19,11,06,20.90
2012,07,19,11,07,20.90
2012,07,19,11,08,21.00
2012,07,19,11,09,21.10
2012,07,19,11,10,21.10
2012,07,19,11,11,21.20
2012,07,19,11,12,21.10
2012,07,19,11,13,21.20
2012,07,19,11,14,21.20
2012,07,19,11,15,21.20
2012,07,19,11,16,21.20
2012,07,19,11,17,21.20
2012,07,19,11,18,21.20
2012,07,19,11,19,21.20
2012,07,19,11,20,21.20
2012,07,19,11,21,21.10
2012,07,19,11,22,21.00
2012,07,19,11,23,20.90
2012,07,19,11,24,20.80
2012,07,19,11,25,20.80
2012,07,19,11,26,20.90
2012,07,19,11,27,21.00
2012,07,19,11,28,21.10
2012,07,19,11,29,21.10
2012,07,19,11,30,21.10
2012,07,19,11,31,21.00
2012,07,19,11,32,21.00
2012,07,19,11,33,21.00
2012,07,19,11,34,20.90
2012,07,19,11,35,20.90
2012,07,19,11,36,21.00
2012,07,19,11,37,21.10
2012,07,19,11,38,21.10
2012,07,19,11,39,21.10
2012,07,19,11,40,21.20
2012,07,19,11,41,21.20
2012,07,19,11,42,21.20
2012,07,19,11,43,21.20
2012,07,19,11,44,21.30
2012,07,19,11,45,21.30
2012,07,19,11,46,21.30
2012,07,19,11,47,21.30
2012,07,19,11,48,21.30
2012,07,19,11,49,21.40
2012,07,19,11,50,21.40
2012,07,19,11,51,21.40
2012,07,19,11,52,21.50
2012,07,19,11,53,21.50
2012,07,19,11,54,21.40
2012,07,19,11,55,21.30
2012,07,19,11,56,21.30
2012,07,19,11,57,21.20
2012,07,19,11,58,21.20
2012,07,19,11,59,21.10
2012,07,19,12,00,21.10
2012,07,19,12,01,21.20
2012,07,19,12,02,21.20
2012,07,19,12,03,21.30
2012,07,19,12,04,21.40
2012,07,19,12,05,21.40
2012,07,19,12,06,21.50
2012,07,19,12,07,21.50
2012,07,19,12,08,21.40
2012,07,19,12,09,21.40
2012,07,19,12,10,21.30
2012,07,19,12,11,21.30
2012,07,19,12,12,21.30
2012,07,19,12,13,21.30
2012,07,19,12,14,21.20
2012,07,19,12,15,21.20
2012,07,19,12,16,21.30
2012,07,19,12,17,21.30
2012,07,19,12,18,21.40
2012,07,19,12,19,21.40
2012,07,19,12,20,21.30
2012,07,19,12,21,21.30
2012,07,19,12,22,21.40
2012,07,19,12,23,21.40
2012,07,19,12,24,21.40
2012,07,19,12,25,21.30
2012,07,19,12,26,21.10
2012,07,19,12,27,21.00
2012,07,19,12,28,20.90
2012,07,19,12,29,20.90
2012,07,19,12,30,20.80
2012,07,19,12,31,20.80
2012,07,19,12,32,20.80
2012,07,19,12,33,20.70
2012,07,19,12,34,20.60
2012,07,19,12,35,20.50
2012,07,19,12,36,20.40
2012,07,19,12,37,20.40
2012,07,19,12,38,20.30
2012,07,19,12,39,20.20
2012,07,19,12,40,20.10
2012,07,19,12,41,20.10
2012,07,19,12,42,20.10
2012,07,19,12,43,20.10
2012,07,19,12,44,20.10
2012,07,19,12,45,20.20
2012,07,19,12,46,20.20
2012,07,19,12,47,20.30
2012,07,19,12,48,20.40
2012,07,19,12,49,20.50
2012,07,19,12,50,20.60
2012,07,19,12,51,20.60
2012,07,19,12,52,20.60
2012,07,19,12,53,20.60
2012,07,19,12,54,20.60
2012,07,19,12,55,20.60
2012,07,19,12,56,20.60
2012,07,19,12,57,20.60
2012,07,19,12,58,20.50
2012,07,19,12,59,20.50
2012,07,19,13,00,20.40
2012,07,19,13,01,20.40
2012,07,19,13,02,20.40
2012,07,19,13,03,20.30
2012,07,19,13,04,20.30
2012,07,19,13,05,20.40
2012,07,19,13,06,20.40
2012,07,19,13,07,20.50
2012,07,19,13,08,20.60
2012,07,19,13,09,20.60
2012,07,19,13,10,20.60
2012,07,19,13,11,20.60
2012,07,19,13,12,20.60
2012,07,19,13,13,20.60
2012,07,19,13,14,20.70
2012,07,19,13,15,20.80
2012,07,19,13,16,20.80
2012,07,19,13,17,20.80
2012,07,19,13,18,20.80
2012,07,19,13,19,20.70
2012,07,19,13,20,20.70
2012,07,19,13,21,20.70
2012,07,19,13,22,20.80
2012,07,19,13,23,20.90
2012,07,19,13,24,20.90
2012,07,19,13,25,21.00
2012,07,19,13,26,21.00
2012,07,19,13,27,21.00
2012,07,19,13,28,21.00
2012,07,19,13,29,21.10
2012,07,19,13,30,21.10
2012,07,19,13,31,21.10
2012,07,19,13,32,21.10
2012,07,19,13,33,21.00
2012,07,19,13,34,21.00
2012,07,19,13,35,21.00
2012,07,19,13,36,21.00
2012,07,19,13,37,21.10
2012,07,19,13,38,21.10
2012,07,19,13,39,21.10
2012,07,19,13,40,21.20
2012,07,19,13,41,21.20
2012,07,19,13,42,21.10
2012,07,19,13,43,21.20
2012,07,19,13,44,21.20
2012,07,19,13,45,21.20
2012,07,19,13,46,21.20
2012,07,19,13,47,21.20
2012,07,19,13,48,21.30
2012,07,19,13,49,21.30
2012,07,19,13,50,21.30
2012,07,19,13,51,21.20
2012,07,19,13,52,21.10
2012,07,19,13,53,21.10
2012,07,19,13,54,21.20
2012,07,19,13,55,21.20
2012,07,19,13,56,21.20
2012,07,19,13,57,21.20
2012,07,19,13,58,21.20
2012,07,19,13,59,21.30
2012,07,19,14,00,21.20
2012,07,19,14,01,21.20
2012,07,19,14,02,21.20
2012,07,19,14,03,21.10
2012,07,19,14,04,21.10
2012,07,19,14,05,21.10
2012,07,19,14,06,21.20
2012,07,19,14,07,21.20
2012,07,19,14,08,21.20
2012,07,19,14,09,21.30
2012,07,19,14,10,21.30
2012,07,19,14,11,21.30
2012,07,19,14,12,21.40
2012,07,19,14,13,21.50
2012,07,19,14,14,21.60
2012,07,19,14,15,21.60
2012,07,19,14,16,21.60
2012,07,19,14,17,21.50
2012,07,19,14,18,21.40
2012,07,19,14,19,21.50
2012,07,19,14,20,21.60
2012,07,19,14,21,21.60
2012,07,19,14,22,21.60
2012,07,19,14,23,21.60
2012,07,19,14,24,21.60
2012,07,19,14,25,21.50
2012,07,19,14,26,21.50
2012,07,19,14,27,21.60
2012,07,19,14,28,21.60
2012,07,19,14,29,21.60
2012,07,19,14,30,21.70
2012,07,19,14,31,21.70
2012,07,19,14,32,21.80
2012,07,19,14,33,21.80
2012,07,19,14,34,21.80
2012,07,19,14,35,21.80
2012,07,19,14,36,21.80
2012,07,19,14,37,21.80
2012,07,19,14,38,21.80
2012,07,19,14,39,21.70
2012,07,19,14,40,21.70
2012,07,19,14,41,21.80
2012,07,19,14,42,21.80
2012,07,19,14,43,21.80
2012,07,19,14,44,21.80
2012,07,19,14,45,21.90
2012,07,19,14,46,21.90
2012,07,19,14,47,21.90
2012,07,19,14,48,21.90
2012,07,19,14,49,21.90
2012,07,19,14,50,21.90
2012,07,19,14,51,22.00
2012,07,19,14,52,21.90
2012,07,19,14,53,21.70
2012,07,19,14,54,21.60
2012,07,19,14,55,21.50
2012,07,19,14,56,21.50
2012,07,19,14,57,21.50
2012,07,19,14,58,21.60
2012,07,19,14,59,21.70
2012,07,19,15,00,21.80
2012,07,19,15,01,21.80
2012,07,19,15,02,21.80
2012,07,19,15,03,21.70
2012,07,19,15,04,21.60
2012,07,19,15,05,21.40
2012,07,19,15,06,21.40
2012,07,19,15,07,21.40
2012,07,19,15,08,21.40
2012,07,19,15,09,21.50
2012,07,19,15,10,21.50
2012,07,19,15,11,21.60
2012,07,19,15,12,21.60
2012,07,19,15,13,21.60
2012,07,19,15,14,21.60
2012,07,19,15,15,21.50
2012,07,19,15,16,21.50
2012,07,19,15,17,21.50
2012,07,19,15,18,21.60
2012,07,19,15,19,21.60
2012,07,19,15,20,21.60
2012,07,19,15,21,21.60
2012,07,19,15,22,21.60
2012,07,19,15,23,21.60
2012,07,19,15,24,21.60
2012,07,19,15,25,21.60
2012,07,19,15,26,21.70
2012,07,19,15,27,21.70
2012,07,19,15,28,21.80
2012,07,19,15,29,22.00
2012,07,19,15,30,22.00
2012,07,19,15,31,22.10
2012,07,19,15,32,22.10
2012,07,19,15,33,22.00
2012,07,19,15,34,21.90
2012,07,19,15,35,21.90
2012,07,19,15,36,21.90
2012,07,19,15,37,21.90
2012,07,19,15,38,22.00
2012,07,19,15,39,22.10
2012,07,19,15,40,22.10
2012,07,19,15,41,22.20
2012,07,19,15,42,22.20
2012,07,19,15,43,22.30
2012,07,19,15,44,22.40
2012,07,19,15,45,22.60
2012,07,19,15,46,22.70
2012,07,19,15,47,22.90
2012,07,19,15,48,22.90
2012,07,19,15,49,23.00
2012,07,19,15,50,23.10
2012,07,19,15,51,23.20
2012,07,19,15,52,23.30
2012,07,19,15,53,23.40
2012,07,19,15,54,23.50
2012,07,19,15,55,23.60
2012,07,19,15,56,23.60
2012,07,19,15,57,23.70
2012,07,19,15,58,23.80
2012,07,19,15,59,23.90
2012,07,19,16,00,23.90
2012,07,19,16,01,24.00
2012,07,19,16,02,24.00
2012,07,19,16,03,24.00
2012,07,19,16,04,24.00
2012,07,19,16,05,24.00
2012,07,19,16,06,23.90
2012,07,19,16,07,23.80
2012,07,19,16,08,23.80
2012,07,19,16,09,23.70
2012,07,19,16,10,23.70
2012,07,19,16,11,23.80
2012,07,19,16,12,23.90
2012,07,19,16,13,23.90
2012,07,19,16,14,24.00
2012,07,19,16,15,24.10
2012,07,19,16,16,24.20
2012,07,19,16,17,24.30
2012,07,19,16,18,24.40
2012,07,19,16,19,24.50
2012,07,19,16,20,24.60
2012,07,19,16,21,24.70
2012,07,19,16,22,24.80
2012,07,19,16,23,24.80
2012,07,19,16,24,24.80
2012,07,19,16,25,24.80
2012,07,19,16,26,24.90
2012,07,19,16,27,25.00
2012,07,19,16,28,25.00
2012,07,19,16,29,25.00
2012,07,19,16,30,24.90
2012,07,19,16,31,24.80
2012,07,19,16,32,24.60
2012,07,19,16,33,24.50
2012,07,19,16,34,24.40
2012,07,19,16,35,24.30
2012,07,19,16,36,24.30
2012,07,19,16,37,24.20
2012,07,19,16,38,24.10
2012,07,19,16,39,24.00
2012,07,19,16,40,23.80
2012,07,19,16,41,23.60
2012,07,19,16,42,23.40
2012,07,19,16,43,23.40
2012,07,19,16,44,23.40
2012,07,19,16,45,23.50
2012,07,19,16,46,23.60
2012,07,19,16,47,23.70
2012,07,19,16,48,23.70
2012,07,19,16,49,23.70
2012,07,19,16,50,23.70
2012,07,19,16,51,23.80
2012,07,19,16,52,23.80
2012,07,19,16,53,23.80
2012,07,19,16,54,23.80
2012,07,19,16,55,23.80
2012,07,19,16,56,23.80
2012,07,19,16,57,23.90
2012,07,19,16,58,23.90
2012,07,19,16,59,23.90
2012,07,19,17,00,23.90
2012,07,19,17,01,23.80
2012,07,19,17,02,23.80
2012,07,19,17,03,23.80
2012,07,19,17,04,23.70
2012,07,19,17,05,23.60
2012,07,19,17,06,23.60
2012,07,19,17,07,23.60
2012,07,19,17,08,23.70
2012,07,19,17,09,23.80
2012,07,19,17,10,23.90
2012,07,19,17,11,24.00
2012,07,19,17,12,24.20
2012,07,19,17,13,24.20
2012,07,19,17,14,24.30
2012,07,19,17,15,24.40
2012,07,19,17,16,24.50
2012,07,19,17,17,24.50
2012,07,19,17,18,24.40
2012,07,19,17,19,24.30